Location: Altmatt
(47.1333°N, 8.7000°E)
Time: 19:10:00
(UTC+00:00)

Nimbus 7 Rocket - Pass Details

Date: 13 July 2020
Orbit: 922 x 965 km, 99.4° (Epoch: 11 August)

Event Time Altitude Azimuth Distance (km) Brightness Sun altitude
Rises 22:32:36 0° 17° (NNE) 3,601 8.5 -20.0°
Reaches altitude 10° 22:35:04 10° 20° (NNE) 2,648 7.6 -20.1°
Maximum altitude 22:40:57 67° 103° (ESE) 1,001 4.4 -20.3°
Enters shadow 22:43:14 38° 173° (S) 1,380 4.8 -20.4°
